Year,Month,Day,Hour,Minute,Value (Times are PST for temperature in C)
2017,04,27,00,00,5.40
2017,04,27,00,01,5.40
2017,04,27,00,02,5.40
2017,04,27,00,03,5.30
2017,04,27,00,04,5.30
2017,04,27,00,05,5.30
2017,04,27,00,06,5.30
2017,04,27,00,07,5.30
2017,04,27,00,08,5.20
2017,04,27,00,09,5.20
2017,04,27,00,10,5.20
2017,04,27,00,11,5.20
2017,04,27,00,12,5.20
2017,04,27,00,13,5.10
2017,04,27,00,14,5.00
2017,04,27,00,15,5.00
2017,04,27,00,16,4.90
2017,04,27,00,17,4.90
2017,04,27,00,18,4.90
2017,04,27,00,19,4.90
2017,04,27,00,20,4.90
2017,04,27,00,21,4.90
2017,04,27,00,22,4.80
2017,04,27,00,23,4.80
2017,04,27,00,24,4.80
2017,04,27,00,25,4.70
2017,04,27,00,26,4.70
2017,04,27,00,27,4.70
2017,04,27,00,28,4.60
2017,04,27,00,29,4.60
2017,04,27,00,30,4.60
2017,04,27,00,31,4.50
2017,04,27,00,32,4.50
2017,04,27,00,33,4.50
2017,04,27,00,34,4.40
2017,04,27,00,35,4.40
2017,04,27,00,36,4.40
2017,04,27,00,37,4.30
2017,04,27,00,38,4.30
2017,04,27,00,39,4.30
2017,04,27,00,40,4.30
2017,04,27,00,41,4.30
2017,04,27,00,42,4.30
2017,04,27,00,43,4.20
2017,04,27,00,44,4.20
2017,04,27,00,45,4.20
2017,04,27,00,46,4.20
2017,04,27,00,47,4.20
2017,04,27,00,48,4.20
2017,04,27,00,49,4.20
2017,04,27,00,50,4.20
2017,04,27,00,51,4.20
2017,04,27,00,52,4.10
2017,04,27,00,53,4.10
2017,04,27,00,54,4.10
2017,04,27,00,55,4.10
2017,04,27,00,56,4.00
2017,04,27,00,57,4.00
2017,04,27,00,58,4.00
2017,04,27,00,59,3.90
2017,04,27,01,00,3.90
2017,04,27,01,01,3.90
2017,04,27,01,02,3.80
2017,04,27,01,03,3.80
2017,04,27,01,04,3.80
2017,04,27,01,05,3.80
2017,04,27,01,06,3.80
2017,04,27,01,07,3.70
2017,04,27,01,08,3.70
2017,04,27,01,09,3.70
2017,04,27,01,10,3.70
2017,04,27,01,11,3.70
2017,04,27,01,12,3.70
2017,04,27,01,13,3.60
2017,04,27,01,14,3.60
2017,04,27,01,15,3.60
2017,04,27,01,16,3.60
2017,04,27,01,17,3.60
2017,04,27,01,18,3.60
2017,04,27,01,19,3.60
2017,04,27,01,20,3.50
2017,04,27,01,21,3.50
2017,04,27,01,22,3.50
2017,04,27,01,23,3.50
2017,04,27,01,24,3.50
2017,04,27,01,25,3.50
2017,04,27,01,26,3.50
2017,04,27,01,27,3.50
2017,04,27,01,28,3.50
2017,04,27,01,29,3.40
2017,04,27,01,30,3.40
2017,04,27,01,31,3.40
2017,04,27,01,32,3.40
2017,04,27,01,33,3.40
2017,04,27,01,34,3.30
2017,04,27,01,35,3.30
2017,04,27,01,36,3.30
2017,04,27,01,37,3.30
2017,04,27,01,38,3.30
2017,04,27,01,39,3.30
2017,04,27,01,40,3.30
2017,04,27,01,41,3.30
2017,04,27,01,42,3.20
2017,04,27,01,43,3.20
2017,04,27,01,44,3.20
2017,04,27,01,45,3.20
2017,04,27,01,46,3.20
2017,04,27,01,47,3.20
2017,04,27,01,48,3.20
2017,04,27,01,49,3.20
2017,04,27,01,50,3.20
2017,04,27,01,51,3.20
2017,04,27,01,52,3.10
2017,04,27,01,53,3.10
2017,04,27,01,54,3.10
2017,04,27,01,55,3.10
2017,04,27,01,56,3.00
2017,04,27,01,57,3.00
2017,04,27,01,58,3.00
2017,04,27,01,59,3.00
2017,04,27,02,00,3.00
2017,04,27,02,01,2.90
2017,04,27,02,02,2.90
2017,04,27,02,03,2.90
2017,04,27,02,04,2.90
2017,04,27,02,05,2.80
2017,04,27,02,06,2.80
2017,04,27,02,07,2.80
2017,04,27,02,08,2.80
2017,04,27,02,09,2.80
2017,04,27,02,10,2.90
2017,04,27,02,11,2.90
2017,04,27,02,12,3.00
2017,04,27,02,13,3.00
2017,04,27,02,14,3.00
2017,04,27,02,15,3.00
2017,04,27,02,16,3.00
2017,04,27,02,17,2.90
2017,04,27,02,18,2.90
2017,04,27,02,19,2.90
2017,04,27,02,20,2.90
2017,04,27,02,21,2.90
2017,04,27,02,22,2.90
2017,04,27,02,23,2.90
2017,04,27,02,24,2.90
2017,04,27,02,25,2.80
2017,04,27,02,26,2.80
2017,04,27,02,27,2.80
2017,04,27,02,28,2.80
2017,04,27,02,29,2.80
2017,04,27,02,30,2.70
2017,04,27,02,31,2.70
2017,04,27,02,32,2.80
2017,04,27,02,33,2.80
2017,04,27,02,34,2.80
2017,04,27,02,35,2.70
2017,04,27,02,36,2.70
2017,04,27,02,37,2.70
2017,04,27,02,38,2.70
2017,04,27,02,39,2.70
2017,04,27,02,40,2.70
2017,04,27,02,41,2.80
2017,04,27,02,42,2.80
2017,04,27,02,43,2.80
2017,04,27,02,44,2.80
2017,04,27,02,45,2.80
2017,04,27,02,46,2.80
2017,04,27,02,47,2.80
2017,04,27,02,48,2.80
2017,04,27,02,49,2.80
2017,04,27,02,50,2.80
2017,04,27,02,51,2.80
2017,04,27,02,52,2.70
2017,04,27,02,53,2.70
2017,04,27,02,54,2.70
2017,04,27,02,55,2.70
2017,04,27,02,56,2.70
2017,04,27,02,57,2.70
2017,04,27,02,58,2.70
2017,04,27,02,59,2.80
2017,04,27,03,00,2.70
2017,04,27,03,01,2.70
2017,04,27,03,02,2.70
2017,04,27,03,03,2.70
2017,04,27,03,04,2.70
2017,04,27,03,05,2.70
2017,04,27,03,06,2.70
2017,04,27,03,07,2.60
2017,04,27,03,08,2.60
2017,04,27,03,09,2.60
2017,04,27,03,10,2.60
2017,04,27,03,11,2.60
2017,04,27,03,12,2.60
2017,04,27,03,13,2.60
2017,04,27,03,14,2.70
2017,04,27,03,15,2.70
2017,04,27,03,16,2.70
2017,04,27,03,17,2.70
2017,04,27,03,18,2.70
2017,04,27,03,19,2.70
2017,04,27,03,20,2.70
2017,04,27,03,21,2.70
2017,04,27,03,22,2.60
2017,04,27,03,23,2.60
2017,04,27,03,24,2.60
2017,04,27,03,25,2.60
2017,04,27,03,26,2.50
2017,04,27,03,27,2.50
2017,04,27,03,28,2.50
2017,04,27,03,29,2.50
2017,04,27,03,30,2.50
2017,04,27,03,31,2.50
2017,04,27,03,32,2.60
2017,04,27,03,33,2.60
2017,04,27,03,34,2.60
2017,04,27,03,35,2.60
2017,04,27,03,36,2.60
2017,04,27,03,37,2.60
2017,04,27,03,38,2.70
2017,04,27,03,39,2.70
2017,04,27,03,40,2.70
2017,04,27,03,41,2.70
2017,04,27,03,42,2.70
2017,04,27,03,43,2.70
2017,04,27,03,44,2.70
2017,04,27,03,45,2.70
2017,04,27,03,46,2.70
2017,04,27,03,47,2.70
2017,04,27,03,48,2.70
2017,04,27,03,49,2.70
2017,04,27,03,50,2.80
2017,04,27,03,51,2.80
2017,04,27,03,52,2.80
2017,04,27,03,53,2.80
2017,04,27,03,54,2.80
2017,04,27,03,55,2.80
2017,04,27,03,56,2.80
2017,04,27,03,57,2.80
2017,04,27,03,58,2.80
2017,04,27,03,59,2.70
2017,04,27,04,00,2.70
2017,04,27,04,01,2.70
2017,04,27,04,02,2.70
2017,04,27,04,03,2.70
2017,04,27,04,04,2.60
2017,04,27,04,05,2.60
2017,04,27,04,06,2.60
2017,04,27,04,07,2.70
2017,04,27,04,08,2.70
2017,04,27,04,09,2.70
2017,04,27,04,10,2.70
2017,04,27,04,11,2.70
2017,04,27,04,12,2.70
2017,04,27,04,13,2.60
2017,04,27,04,14,2.60
2017,04,27,04,15,2.60
2017,04,27,04,16,2.70
2017,04,27,04,17,2.70
2017,04,27,04,18,2.70
2017,04,27,04,19,2.80
2017,04,27,04,20,2.80
2017,04,27,04,21,2.80
2017,04,27,04,22,2.90
2017,04,27,04,23,2.90
2017,04,27,04,24,2.90
2017,04,27,04,25,2.90
2017,04,27,04,26,2.90
2017,04,27,04,27,2.90
2017,04,27,04,28,2.90
2017,04,27,04,29,3.00
2017,04,27,04,30,3.00
2017,04,27,04,31,3.10
2017,04,27,04,32,3.10
2017,04,27,04,33,3.10
2017,04,27,04,34,3.20
2017,04,27,04,35,3.20
2017,04,27,04,36,3.20
2017,04,27,04,37,3.20
2017,04,27,04,38,3.30
2017,04,27,04,39,3.30
2017,04,27,04,40,3.30
2017,04,27,04,41,3.30
2017,04,27,04,42,3.20
2017,04,27,04,43,3.20
2017,04,27,04,44,3.20
2017,04,27,04,45,3.10
2017,04,27,04,46,3.10
2017,04,27,04,47,3.10
2017,04,27,04,48,3.00
2017,04,27,04,49,3.00
2017,04,27,04,50,2.90
2017,04,27,04,51,2.90
2017,04,27,04,52,2.90
2017,04,27,04,53,2.90
2017,04,27,04,54,2.90
2017,04,27,04,55,2.80
2017,04,27,04,56,2.80
2017,04,27,04,57,2.80
2017,04,27,04,58,2.80
2017,04,27,04,59,2.80
2017,04,27,05,00,2.80
2017,04,27,05,01,2.80
2017,04,27,05,02,2.80
2017,04,27,05,03,2.80
2017,04,27,05,04,2.80
2017,04,27,05,05,2.80
2017,04,27,05,06,2.80
2017,04,27,05,07,2.80
2017,04,27,05,08,2.80
2017,04,27,05,09,2.80
2017,04,27,05,10,2.80
2017,04,27,05,11,2.80
2017,04,27,05,12,2.80
2017,04,27,05,13,2.80
2017,04,27,05,14,2.80
2017,04,27,05,15,2.80
2017,04,27,05,16,2.80
2017,04,27,05,17,2.80
2017,04,27,05,18,2.80
2017,04,27,05,19,2.80
2017,04,27,05,20,2.80
2017,04,27,05,21,2.80
2017,04,27,05,22,2.80
2017,04,27,05,23,2.80
2017,04,27,05,24,2.80
2017,04,27,05,25,2.80
2017,04,27,05,26,2.80
2017,04,27,05,27,2.80
2017,04,27,05,28,2.80
2017,04,27,05,29,2.80
2017,04,27,05,30,2.80
2017,04,27,05,31,2.80
2017,04,27,05,32,2.80
2017,04,27,05,33,2.80
2017,04,27,05,34,2.80
2017,04,27,05,35,2.80
2017,04,27,05,36,2.80
2017,04,27,05,37,2.80
2017,04,27,05,38,2.80
2017,04,27,05,39,2.80
2017,04,27,05,40,2.80
2017,04,27,05,41,2.80
2017,04,27,05,42,2.80
2017,04,27,05,43,2.80
2017,04,27,05,44,2.90
2017,04,27,05,45,2.90
2017,04,27,05,46,2.90
2017,04,27,05,47,2.90
2017,04,27,05,48,2.90
2017,04,27,05,49,2.90
2017,04,27,05,50,2.90
2017,04,27,05,51,2.90
2017,04,27,05,52,2.90
2017,04,27,05,53,2.90
2017,04,27,05,54,2.90
2017,04,27,05,55,2.90
2017,04,27,05,56,2.90
2017,04,27,05,57,2.90
2017,04,27,05,58,2.90
2017,04,27,05,59,2.90
2017,04,27,06,00,2.90
2017,04,27,06,01,2.90
2017,04,27,06,02,2.90
2017,04,27,06,03,2.90
2017,04,27,06,04,3.00
2017,04,27,06,05,3.00
2017,04,27,06,06,3.00
2017,04,27,06,07,3.00
2017,04,27,06,08,3.00
2017,04,27,06,09,3.10
2017,04,27,06,10,3.10
2017,04,27,06,11,3.10
2017,04,27,06,12,3.10
2017,04,27,06,13,3.10
2017,04,27,06,14,3.10
2017,04,27,06,15,3.10
2017,04,27,06,16,3.20
2017,04,27,06,17,3.20
2017,04,27,06,18,3.20
2017,04,27,06,19,3.20
2017,04,27,06,20,3.20
2017,04,27,06,21,3.10
2017,04,27,06,22,3.10
2017,04,27,06,23,3.10
2017,04,27,06,24,3.10
2017,04,27,06,25,3.10
2017,04,27,06,26,3.00
2017,04,27,06,27,3.10
2017,04,27,06,28,3.10
2017,04,27,06,29,3.10
2017,04,27,06,30,3.10
2017,04,27,06,31,3.10
2017,04,27,06,32,3.10
2017,04,27,06,33,3.10
2017,04,27,06,34,3.10
2017,04,27,06,35,3.10
2017,04,27,06,36,3.10
2017,04,27,06,37,3.10
2017,04,27,06,38,3.10
2017,04,27,06,39,3.10
2017,04,27,06,40,3.00
2017,04,27,06,41,3.00
2017,04,27,06,42,3.10
2017,04,27,06,43,3.10
2017,04,27,06,44,3.10
2017,04,27,06,45,3.10
2017,04,27,06,46,3.10
2017,04,27,06,47,3.10
2017,04,27,06,48,3.10
2017,04,27,06,49,3.10
2017,04,27,06,50,3.10
2017,04,27,06,51,3.10
2017,04,27,06,52,3.10
2017,04,27,06,53,3.10
2017,04,27,06,54,3.10
2017,04,27,06,55,3.10
2017,04,27,06,56,3.10
2017,04,27,06,57,3.10
2017,04,27,06,58,3.10
2017,04,27,06,59,3.20
2017,04,27,07,00,3.20
2017,04,27,07,01,3.20
2017,04,27,07,02,3.20
2017,04,27,07,03,3.20
2017,04,27,07,04,3.20
2017,04,27,07,05,3.20
2017,04,27,07,06,3.20
2017,04,27,07,07,3.20
2017,04,27,07,08,3.20
2017,04,27,07,09,3.30
2017,04,27,07,10,3.30
2017,04,27,07,11,3.30
2017,04,27,07,12,3.30
2017,04,27,07,13,3.30
2017,04,27,07,14,3.30
2017,04,27,07,15,3.30
2017,04,27,07,16,3.30
2017,04,27,07,17,3.30
2017,04,27,07,18,3.30
2017,04,27,07,19,3.30
2017,04,27,07,20,3.30
2017,04,27,07,21,3.30
2017,04,27,07,22,3.30
2017,04,27,07,23,3.30
2017,04,27,07,24,3.30
2017,04,27,07,25,3.30
2017,04,27,07,26,3.30
2017,04,27,07,27,3.30
2017,04,27,07,28,3.30
2017,04,27,07,29,3.40
2017,04,27,07,30,3.40
2017,04,27,07,31,3.40
2017,04,27,07,32,3.40
2017,04,27,07,33,3.40
2017,04,27,07,34,3.40
2017,04,27,07,35,3.40
2017,04,27,07,36,3.40
2017,04,27,07,37,3.40
2017,04,27,07,38,3.40
2017,04,27,07,39,3.50
2017,04,27,07,40,3.50
2017,04,27,07,41,3.50
2017,04,27,07,42,3.60
2017,04,27,07,43,3.60
2017,04,27,07,44,3.60
2017,04,27,07,45,3.60
2017,04,27,07,46,3.70
2017,04,27,07,47,3.70
2017,04,27,07,48,3.70
2017,04,27,07,49,3.70
2017,04,27,07,50,3.70
2017,04,27,07,51,3.70
2017,04,27,07,52,3.70
2017,04,27,07,53,3.80
2017,04,27,07,54,3.80
2017,04,27,07,55,3.80
2017,04,27,07,56,3.80
2017,04,27,07,57,3.90
2017,04,27,07,58,3.90
2017,04,27,07,59,3.90
2017,04,27,08,00,4.00
2017,04,27,08,01,4.00
2017,04,27,08,02,4.10
2017,04,27,08,03,4.10
2017,04,27,08,04,4.20
2017,04,27,08,05,4.20
2017,04,27,08,06,4.30
2017,04,27,08,07,4.30
2017,04,27,08,08,4.40
2017,04,27,08,09,4.60
2017,04,27,08,10,4.70
2017,04,27,08,11,4.80
2017,04,27,08,12,5.00
2017,04,27,08,13,5.10
2017,04,27,08,14,5.30
2017,04,27,08,15,5.50
2017,04,27,08,16,5.70
2017,04,27,08,17,5.90
2017,04,27,08,18,6.00
2017,04,27,08,19,6.20
2017,04,27,08,20,6.40
2017,04,27,08,21,6.50
2017,04,27,08,22,6.60
2017,04,27,08,23,6.80
2017,04,27,08,24,6.80
2017,04,27,08,25,6.90
2017,04,27,08,26,7.00
2017,04,27,08,27,7.10
2017,04,27,08,28,7.10
2017,04,27,08,29,7.20
2017,04,27,08,30,7.20
2017,04,27,08,31,7.30
2017,04,27,08,32,7.40
2017,04,27,08,33,7.50
2017,04,27,08,34,7.50
2017,04,27,08,35,7.60
2017,04,27,08,36,7.60
2017,04,27,08,37,7.70
2017,04,27,08,38,7.70
2017,04,27,08,39,7.80
2017,04,27,08,40,7.80
2017,04,27,08,41,7.80
2017,04,27,08,42,7.80
2017,04,27,08,43,7.90
2017,04,27,08,44,7.90
2017,04,27,08,45,7.90
2017,04,27,08,46,7.80
2017,04,27,08,47,7.80
2017,04,27,08,48,7.80
2017,04,27,08,49,7.80
2017,04,27,08,50,7.80
2017,04,27,08,51,7.80
2017,04,27,08,52,7.90
2017,04,27,08,53,7.90
2017,04,27,08,54,8.00
2017,04,27,08,55,8.00
2017,04,27,08,56,8.00
2017,04,27,08,57,8.10
2017,04,27,08,58,8.10
2017,04,27,08,59,8.10
2017,04,27,09,00,8.10
2017,04,27,09,01,8.10
2017,04,27,09,02,8.20
2017,04,27,09,03,8.20
2017,04,27,09,04,8.20
2017,04,27,09,05,8.30
2017,04,27,09,06,8.30
2017,04,27,09,07,8.30
2017,04,27,09,08,8.30
2017,04,27,09,09,8.40
2017,04,27,09,10,8.40
2017,04,27,09,11,8.40
2017,04,27,09,12,8.40
2017,04,27,09,13,8.40
2017,04,27,09,14,8.50
2017,04,27,09,15,8.50
2017,04,27,09,16,8.50
2017,04,27,09,17,8.60
2017,04,27,09,18,8.60
2017,04,27,09,19,8.60
2017,04,27,09,20,8.60
2017,04,27,09,21,8.60
2017,04,27,09,22,8.60
2017,04,27,09,23,8.60
2017,04,27,09,24,8.50
2017,04,27,09,25,8.50
2017,04,27,09,26,8.40
2017,04,27,09,27,8.40
2017,04,27,09,28,8.40
2017,04,27,09,29,8.40
2017,04,27,09,30,8.40
2017,04,27,09,31,8.40
2017,04,27,09,32,8.40
2017,04,27,09,33,8.40
2017,04,27,09,34,8.40
2017,04,27,09,35,8.50
2017,04,27,09,36,8.50
2017,04,27,09,37,8.60
2017,04,27,09,38,8.60
2017,04,27,09,39,8.70
2017,04,27,09,40,8.70
2017,04,27,09,41,8.80
2017,04,27,09,42,8.80
2017,04,27,09,43,8.90
2017,04,27,09,44,8.90
2017,04,27,09,45,9.00
2017,04,27,09,46,9.10
2017,04,27,09,47,9.10
2017,04,27,09,48,9.10
2017,04,27,09,49,9.10
2017,04,27,09,50,9.10
2017,04,27,09,51,9.10
2017,04,27,09,52,9.10
2017,04,27,09,53,9.10
2017,04,27,09,54,9.10
2017,04,27,09,55,9.10
2017,04,27,09,56,9.10
2017,04,27,09,57,9.10
2017,04,27,09,58,9.10
2017,04,27,09,59,9.10
2017,04,27,10,00,9.10
2017,04,27,10,01,9.10
2017,04,27,10,02,9.20
2017,04,27,10,03,9.30
2017,04,27,10,04,9.40
2017,04,27,10,05,9.50
2017,04,27,10,06,9.60
2017,04,27,10,07,9.70
2017,04,27,10,08,9.70
2017,04,27,10,09,9.70
2017,04,27,10,10,9.70
2017,04,27,10,11,9.70
2017,04,27,10,12,9.80
2017,04,27,10,13,9.80
2017,04,27,10,14,9.80
2017,04,27,10,15,9.80
2017,04,27,10,16,9.90
2017,04,27,10,17,10.00
2017,04,27,10,18,10.00
2017,04,27,10,19,10.10
2017,04,27,10,20,10.10
2017,04,27,10,21,10.10
2017,04,27,10,22,10.10
2017,04,27,10,23,10.10
2017,04,27,10,24,10.10
2017,04,27,10,25,10.20
2017,04,27,10,26,10.20
2017,04,27,10,27,10.10
2017,04,27,10,28,10.10
2017,04,27,10,29,10.10
2017,04,27,10,30,10.00
2017,04,27,10,31,10.00
2017,04,27,10,32,9.90
2017,04,27,10,33,9.90
2017,04,27,10,34,9.80
2017,04,27,10,35,9.80
2017,04,27,10,36,9.70
2017,04,27,10,37,9.70
2017,04,27,10,38,9.70
2017,04,27,10,39,9.70
2017,04,27,10,40,9.70
2017,04,27,10,41,9.70
2017,04,27,10,42,9.70
2017,04,27,10,43,9.70
2017,04,27,10,44,9.70
2017,04,27,10,45,9.70
2017,04,27,10,46,9.70
2017,04,27,10,47,9.70
2017,04,27,10,48,9.70
2017,04,27,10,49,9.80
2017,04,27,10,50,9.80
2017,04,27,10,51,9.80
2017,04,27,10,52,9.80
2017,04,27,10,53,9.80
2017,04,27,10,54,9.80
2017,04,27,10,55,9.80
2017,04,27,10,56,9.70
2017,04,27,10,57,9.70
2017,04,27,10,58,9.70
2017,04,27,10,59,9.60
2017,04,27,11,00,9.50
2017,04,27,11,01,9.40
2017,04,27,11,02,9.40
2017,04,27,11,03,9.30
2017,04,27,11,04,9.30
2017,04,27,11,05,9.30
2017,04,27,11,06,9.20
2017,04,27,11,07,9.20
2017,04,27,11,08,9.20
2017,04,27,11,09,9.10
2017,04,27,11,10,9.10
2017,04,27,11,11,9.00
2017,04,27,11,12,9.00
2017,04,27,11,13,8.90
2017,04,27,11,14,8.90
2017,04,27,11,15,8.90
2017,04,27,11,16,8.90
2017,04,27,11,17,8.80
2017,04,27,11,18,8.80
2017,04,27,11,19,8.80
2017,04,27,11,20,8.70
2017,04,27,11,21,8.70
2017,04,27,11,22,8.60
2017,04,27,11,23,8.50
2017,04,27,11,24,8.40
2017,04,27,11,25,8.30
2017,04,27,11,26,8.20
2017,04,27,11,27,8.10
2017,04,27,11,28,8.00
2017,04,27,11,29,8.00
2017,04,27,11,30,7.90
2017,04,27,11,31,7.90
2017,04,27,11,32,7.90
2017,04,27,11,33,7.80
2017,04,27,11,34,7.80
2017,04,27,11,35,7.80
2017,04,27,11,36,7.80
2017,04,27,11,37,7.80
2017,04,27,11,38,7.90
2017,04,27,11,39,7.90
2017,04,27,11,40,7.90
2017,04,27,11,41,8.00
2017,04,27,11,42,8.00
2017,04,27,11,43,8.10
2017,04,27,11,44,8.20
2017,04,27,11,45,8.30
2017,04,27,11,46,8.30
2017,04,27,11,47,8.40
2017,04,27,11,48,8.50
2017,04,27,11,49,8.60
2017,04,27,11,50,8.70
2017,04,27,11,51,8.80
2017,04,27,11,52,8.80
2017,04,27,11,53,8.90
2017,04,27,11,54,8.80
2017,04,27,11,55,8.80
2017,04,27,11,56,8.80
2017,04,27,11,57,8.90
2017,04,27,11,58,8.90
2017,04,27,11,59,9.00
2017,04,27,12,00,9.20
2017,04,27,12,01,9.20
2017,04,27,12,02,9.30
2017,04,27,12,03,9.50
2017,04,27,12,04,9.60
2017,04,27,12,05,9.70
2017,04,27,12,06,9.80
2017,04,27,12,07,9.80
2017,04,27,12,08,9.80
2017,04,27,12,09,9.80
2017,04,27,12,10,9.80
2017,04,27,12,11,9.80
2017,04,27,12,12,9.70
2017,04,27,12,13,9.70
2017,04,27,12,14,9.70
2017,04,27,12,15,9.60
2017,04,27,12,16,9.60
2017,04,27,12,17,9.60
2017,04,27,12,18,9.60
2017,04,27,12,19,9.60
2017,04,27,12,20,9.70
2017,04,27,12,21,9.70
2017,04,27,12,22,9.70
2017,04,27,12,23,9.70
2017,04,27,12,24,9.80
2017,04,27,12,25,9.80
2017,04,27,12,26,9.70
2017,04,27,12,27,9.70
2017,04,27,12,28,9.60
2017,04,27,12,29,9.60
2017,04,27,12,30,9.60
2017,04,27,12,31,9.50
2017,04,27,12,32,9.40
2017,04,27,12,33,9.40
2017,04,27,12,34,9.30
2017,04,27,12,35,9.20
2017,04,27,12,36,9.20
2017,04,27,12,37,9.10
2017,04,27,12,38,9.00
2017,04,27,12,39,8.90
2017,04,27,12,40,8.80
2017,04,27,12,41,8.70
2017,04,27,12,42,8.70
2017,04,27,12,43,8.70
2017,04,27,12,44,8.70
2017,04,27,12,45,8.80
2017,04,27,12,46,8.80
2017,04,27,12,47,8.80
2017,04,27,12,48,8.90
2017,04,27,12,49,8.90
2017,04,27,12,50,9.00
2017,04,27,12,51,9.10
2017,04,27,12,52,9.20
2017,04,27,12,53,9.30
2017,04,27,12,54,9.30
2017,04,27,12,55,9.40
2017,04,27,12,56,9.50
2017,04,27,12,57,9.60
2017,04,27,12,58,9.70
2017,04,27,12,59,9.80
2017,04,27,13,00,9.90
2017,04,27,13,01,9.90
2017,04,27,13,02,9.90
2017,04,27,13,03,9.90
2017,04,27,13,04,9.90
2017,04,27,13,05,10.00
2017,04,27,13,06,10.20
2017,04,27,13,07,10.30
2017,04,27,13,08,10.40
2017,04,27,13,09,10.50
2017,04,27,13,10,10.60
2017,04,27,13,11,10.60
2017,04,27,13,12,10.60
2017,04,27,13,13,10.70
2017,04,27,13,14,10.70
2017,04,27,13,15,10.70
2017,04,27,13,16,10.80
2017,04,27,13,17,10.80
2017,04,27,13,18,10.80
2017,04,27,13,19,10.70
2017,04,27,13,20,10.80
2017,04,27,13,21,10.80
2017,04,27,13,22,10.70
2017,04,27,13,23,10.70
2017,04,27,13,24,10.70
2017,04,27,13,25,10.60
2017,04,27,13,26,10.60
2017,04,27,13,27,10.60
2017,04,27,13,28,10.60
2017,04,27,13,29,10.50
2017,04,27,13,30,10.40
2017,04,27,13,31,10.30
2017,04,27,13,32,10.10
2017,04,27,13,33,9.80
2017,04,27,13,34,9.50
2017,04,27,13,35,9.30
2017,04,27,13,36,9.10
2017,04,27,13,37,8.90
2017,04,27,13,38,8.80
2017,04,27,13,39,8.60
2017,04,27,13,40,8.50
2017,04,27,13,41,8.40
2017,04,27,13,42,8.30
2017,04,27,13,43,8.20
2017,04,27,13,44,8.10
2017,04,27,13,45,8.00
2017,04,27,13,46,7.90
2017,04,27,13,47,7.90
2017,04,27,13,48,7.90
2017,04,27,13,49,7.90
2017,04,27,13,50,7.90
2017,04,27,13,51,7.90
2017,04,27,13,52,7.90
2017,04,27,13,53,7.90
2017,04,27,13,54,7.90
2017,04,27,13,55,7.90
2017,04,27,13,56,7.90
2017,04,27,13,57,7.90
2017,04,27,13,58,7.90
2017,04,27,13,59,7.80
2017,04,27,14,00,7.80
2017,04,27,14,01,7.70
2017,04,27,14,02,7.70
2017,04,27,14,03,7.70
2017,04,27,14,04,7.70
2017,04,27,14,05,7.60
2017,04,27,14,06,7.60
2017,04,27,14,07,7.60
2017,04,27,14,08,7.70
2017,04,27,14,09,7.70
2017,04,27,14,10,7.60
2017,04,27,14,11,7.70
2017,04,27,14,12,7.70
2017,04,27,14,13,7.70
2017,04,27,14,14,7.70
2017,04,27,14,15,7.70
2017,04,27,14,16,7.70
2017,04,27,14,17,7.70
2017,04,27,14,18,7.70
2017,04,27,14,19,7.70
2017,04,27,14,20,7.70
2017,04,27,14,21,7.70
2017,04,27,14,22,7.70
2017,04,27,14,23,7.70
2017,04,27,14,24,7.70
2017,04,27,14,25,7.70
2017,04,27,14,26,7.70
2017,04,27,14,27,7.80
2017,04,27,14,28,7.80
2017,04,27,14,29,7.80
2017,04,27,14,30,7.90
2017,04,27,14,31,7.90
2017,04,27,14,32,8.00
2017,04,27,14,33,8.00
2017,04,27,14,34,8.10
2017,04,27,14,35,8.10
2017,04,27,14,36,8.00
2017,04,27,14,37,8.00
2017,04,27,14,38,8.00
2017,04,27,14,39,8.00
2017,04,27,14,40,8.00
2017,04,27,14,41,8.00
2017,04,27,14,42,8.00
2017,04,27,14,43,8.10
2017,04,27,14,44,8.10
2017,04,27,14,45,8.10
2017,04,27,14,46,8.10
2017,04,27,14,47,8.20
2017,04,27,14,48,8.20
2017,04,27,14,49,8.30
2017,04,27,14,50,8.30
2017,04,27,14,51,8.40
2017,04,27,14,52,8.50
2017,04,27,14,53,8.50
2017,04,27,14,54,8.60
2017,04,27,14,55,8.60
2017,04,27,14,56,8.60
2017,04,27,14,57,8.70
2017,04,27,14,58,8.70
2017,04,27,14,59,8.80
2017,04,27,15,00,8.80
2017,04,27,15,01,8.80
2017,04,27,15,02,8.90
2017,04,27,15,03,8.90
2017,04,27,15,04,9.00
2017,04,27,15,05,9.00
2017,04,27,15,06,9.10
2017,04,27,15,07,9.10
2017,04,27,15,08,9.10
2017,04,27,15,09,9.10
2017,04,27,15,10,9.10
2017,04,27,15,11,9.10
2017,04,27,15,12,9.10
2017,04,27,15,13,9.20
2017,04,27,15,14,9.20
2017,04,27,15,15,9.20
2017,04,27,15,16,9.20
2017,04,27,15,17,9.30
2017,04,27,15,18,9.30
2017,04,27,15,19,9.30
2017,04,27,15,20,9.30
2017,04,27,15,21,9.40
2017,04,27,15,22,9.40
2017,04,27,15,23,9.50
2017,04,27,15,24,9.50
2017,04,27,15,25,9.60
2017,04,27,15,26,9.70
2017,04,27,15,27,9.70
2017,04,27,15,28,9.80
2017,04,27,15,29,9.80
2017,04,27,15,30,9.80
2017,04,27,15,31,9.80
2017,04,27,15,32,9.90
2017,04,27,15,33,10.00
2017,04,27,15,34,10.10
2017,04,27,15,35,10.10
2017,04,27,15,36,10.20
2017,04,27,15,37,10.20
2017,04,27,15,38,10.10
2017,04,27,15,39,10.10
2017,04,27,15,40,10.00
2017,04,27,15,41,9.90
2017,04,27,15,42,9.90
2017,04,27,15,43,9.90
2017,04,27,15,44,9.90
2017,04,27,15,45,9.90
2017,04,27,15,46,9.90
2017,04,27,15,47,9.80
2017,04,27,15,48,9.80
2017,04,27,15,49,9.80
2017,04,27,15,50,9.80
2017,04,27,15,51,9.80
2017,04,27,15,52,9.70
2017,04,27,15,53,9.70
2017,04,27,15,54,9.70
2017,04,27,15,55,9.70
2017,04,27,15,56,9.70
2017,04,27,15,57,9.80
2017,04,27,15,58,9.80
2017,04,27,15,59,9.80
2017,04,27,16,00,9.80
2017,04,27,16,01,9.80
2017,04,27,16,02,9.80
2017,04,27,16,03,9.80
2017,04,27,16,04,9.90
2017,04,27,16,05,9.90
2017,04,27,16,06,9.90
2017,04,27,16,07,9.90
2017,04,27,16,08,9.90
2017,04,27,16,09,10.00
2017,04,27,16,10,10.00
2017,04,27,16,11,10.00
2017,04,27,16,12,10.00
2017,04,27,16,13,10.10
2017,04,27,16,14,10.10
2017,04,27,16,15,10.10
2017,04,27,16,16,10.00
2017,04,27,16,17,10.00
2017,04,27,16,18,10.00
2017,04,27,16,19,10.00
2017,04,27,16,20,10.00
2017,04,27,16,21,10.00
2017,04,27,16,22,10.00
2017,04,27,16,23,10.00
2017,04,27,16,24,10.00
2017,04,27,16,25,10.10
2017,04,27,16,26,10.10
2017,04,27,16,27,10.10
2017,04,27,16,28,10.10
2017,04,27,16,29,10.10
2017,04,27,16,30,10.10
2017,04,27,16,31,10.10
2017,04,27,16,32,10.20
2017,04,27,16,33,10.20
2017,04,27,16,34,10.30
2017,04,27,16,35,10.40
2017,04,27,16,36,10.50
2017,04,27,16,37,10.50
2017,04,27,16,38,10.50
2017,04,27,16,39,10.40
2017,04,27,16,40,10.40
2017,04,27,16,41,10.40
2017,04,27,16,42,10.40
2017,04,27,16,43,10.50
2017,04,27,16,44,10.50
2017,04,27,16,45,10.60
2017,04,27,16,46,10.60
2017,04,27,16,47,10.60
2017,04,27,16,48,10.60
2017,04,27,16,49,10.60
2017,04,27,16,50,10.60
2017,04,27,16,51,10.60
2017,04,27,16,52,10.60
2017,04,27,16,53,10.60
2017,04,27,16,54,10.70
2017,04,27,16,55,10.70
2017,04,27,16,56,10.60
2017,04,27,16,57,10.60
2017,04,27,16,58,10.50
2017,04,27,16,59,10.50
2017,04,27,17,00,10.50
2017,04,27,17,01,10.40
2017,04,27,17,02,10.40
2017,04,27,17,03,10.40
2017,04,27,17,04,10.40
2017,04,27,17,05,10.40
2017,04,27,17,06,10.40
2017,04,27,17,07,10.40
2017,04,27,17,08,10.40
2017,04,27,17,09,10.30
2017,04,27,17,10,10.10
2017,04,27,17,11,10.00
2017,04,27,17,12,10.00
2017,04,27,17,13,9.90
2017,04,27,17,14,9.90
2017,04,27,17,15,9.80
2017,04,27,17,16,9.80
2017,04,27,17,17,9.80
2017,04,27,17,18,9.80
2017,04,27,17,19,9.80
2017,04,27,17,20,9.80
2017,04,27,17,21,9.90
2017,04,27,17,22,10.00
2017,04,27,17,23,10.00
2017,04,27,17,24,10.10
2017,04,27,17,25,10.10
2017,04,27,17,26,10.10
2017,04,27,17,27,10.10
2017,04,27,17,28,10.10
2017,04,27,17,29,10.00
2017,04,27,17,30,10.10
2017,04,27,17,31,10.10
2017,04,27,17,32,10.10
2017,04,27,17,33,10.20
2017,04,27,17,34,10.30
2017,04,27,17,35,10.30
2017,04,27,17,36,10.30
2017,04,27,17,37,10.40
2017,04,27,17,38,10.40
2017,04,27,17,39,10.50
2017,04,27,17,40,10.50
2017,04,27,17,41,10.50
2017,04,27,17,42,10.60
2017,04,27,17,43,10.60
2017,04,27,17,44,10.60
2017,04,27,17,45,10.60
2017,04,27,17,46,10.50
2017,04,27,17,47,10.50
2017,04,27,17,48,10.40
2017,04,27,17,49,10.30
2017,04,27,17,50,10.30
2017,04,27,17,51,10.30
2017,04,27,17,52,10.40
2017,04,27,17,53,10.40
2017,04,27,17,54,10.40
2017,04,27,17,55,10.40
2017,04,27,17,56,10.40
2017,04,27,17,57,10.40
2017,04,27,17,58,10.40
2017,04,27,17,59,10.50